Location: Usti nad Labem
(50.6670°N, 14.0330°E)
Time: 09:19:30
(UTC+02:00)

ISS - Visible Passes

Search period start: 30 July 2016 00:00
Search period end: 09 August 2016 00:00
Orbit: 401 x 404 km, 51.6° (Epoch: 30 July)

Date Brightness Start Highest point End Pass type
(mag) Time Alt. Az. Time Alt. Az. Time Alt. Az.
30 Jul -1.9 01:07:14 10° WNW 01:09:02 30° WNW 01:09:02 30° WNW visible
30 Jul -3.4 22:37:45 10° WSW 22:41:01 88° SSE 22:44:17 10° ENE visible
31 Jul -3.3 00:14:17 10° W 00:17:32 76° N 00:17:41 74° NE visible
31 Jul -3.4 21:44:51 10° WSW 21:48:06 68° SSE 21:51:20 10° ENE visible
31 Jul -3.2 23:21:18 10° W 23:24:34 72° N 23:26:21 24° E visible
01 Aug -1.2 00:57:48 10° WNW 00:58:56 20° W 00:58:56 20° W visible
01 Aug -3.2 22:28:19 10° W 22:31:35 75° N 22:34:51 10° E visible
02 Aug -3.1 00:04:50 10° WNW 00:07:38 62° W 00:07:38 62° W visible
02 Aug -3.3 21:35:21 10° WSW 21:38:36 87° NNW 21:41:53 10° ENE visible
02 Aug -3.3 23:11:52 10° W 23:15:09 78° N 23:16:21 35° E visible
03 Aug -0.8 00:48:23 10° W 00:48:57 14° W 00:48:57 14° W visible
03 Aug -3.1 22:18:54 10° W 22:22:10 72° N 22:25:05 12° E visible
03 Aug -2.4 23:55:23 10° WNW 23:57:40 40° W 23:57:40 40° W visible
04 Aug -3.1 21:25:54 10° W 21:29:10 74° N 21:32:26 10° E visible
04 Aug -3.5 23:02:25 10° WNW 23:05:41 82° SSW 23:06:26 50° ESE visible
05 Aug -3.3 22:09:27 10° WNW 22:12:43 81° N 22:15:12 16° E visible
05 Aug -1.7 23:45:58 10° W 23:47:47 26° WSW 23:47:47 26° WSW visible
06 Aug -3.1 21:16:28 10° W 21:19:44 73° N 21:22:59 10° E visible
06 Aug -3.2 22:52:57 10° WNW 22:56:09 55° SSW 22:56:34 49° S visible
07 Aug -3.4 21:59:58 10° WNW 22:03:14 77° SSW 22:05:23 19° ESE visible
07 Aug -1.1 23:36:45 10° W 23:37:59 17° WSW 23:37:59 17° WSW visible
08 Aug -3.3 21:07:00 10° WNW 21:10:16 85° NNE 21:13:32 10° E visible
08 Aug -2.4 22:43:33 10° W 22:46:31 33° SSW 22:46:49 32° SSW visible
